Preview of NWS' New Version of Forecast
This preview is not operational and should not be used for support decisions.

Regional Weather Roundup (RWR)

Issued by National Weather Service (NWS)

                            
000
ASPQ40 PGUM 230110
RWRPQ 
WEATHER ROUNDUP FOR THE MARIANAS AND MICRONESIA
NATIONAL WEATHER SERVICE TIYAN GU
1100 AM CHST SAT MAR 23 2019

GUZ001>004-230200-
MARIANA ISLANDS-
  
CITY           SKY/WX    TMP DP  RH WIND       PRES   REMARKS
GUAM AIRPORT   MOSUNNY   84  70  61 E14       29.91F                  
ANDERSEN AFB   PTSUNNY   84  72  65 NE14      29.92F                  
ROTA AIRPORT   MOSUNNY   81  72  74 NE15      29.91S                  
TINIAN AP      MOSUNNY   82  70  65 E18       29.90S                  
SAIPAN AP      MOSUNNY   84  70  61 NE18      29.91F                  

$$

PMZ161-230200-
REPUBLIC OF PALAU-
  
CITY           SKY/WX    TMP DP  RH WIND       PRES   REMARKS
KOROR AP       PTSUNNY   84  73  70 NE10G21   29.89S HX  91           
KOROR WSO      NOT AVBL                                               

$$

PMZ171>174-230200-
FEDERATED STATES OF MICRONESIA-
  
CITY           SKY/WX    TMP DP  RH WIND       PRES   REMARKS
YAP AIRPORT    PTSUNNY   88  73  62 NE10      29.90S HX  96           
CHUUK AP       CLOUDY    82  79  89 VRB6      29.81  HX  93           
POHNPEI AP     LGT RAIN  81  77  89 E7        29.83F                  
POHNPEI WSO    LGT RAIN  82  79  89 NE5       29.87F HX  93           
KOSRAE AP      PTSUNNY   86  75  70 VRB3      29.83F HX  95           

$$

PMZ181-230200-
REPUBLIC OF THE MARSHALL ISLANDS-
  
CITY           SKY/WX    TMP DP  RH WIND       PRES   REMARKS
KWAJALEIN AP   MOSUNNY   86  77  74 E12       29.85F HX  97           
MAJURO AP      NOT AVBL                                               
MAJURO WSO     MOSUNNY   86  77  74 E7        29.80F HX  97           

$$